STARLINK-35026

Last updated on Mon Oct 06 2025 00:02:06 GMT+0000 (Coordinated Universal Time)

1 65514U 25198Y 25278.50001156 .00118776 00000+0 21171-2 0 9991 2 65514 53.1588 280.4260 0001134 75.3253 113.2724 15.49231198 5591

Satellite not in orbit

STARLINK-35026